Content
SEND FEEDBACK

Daily
Averages
Monthly
Summary
Canada

MONTREAL, QUEBEC


Home > North America > Canada > Quebec
Elevation: 35 meters     Latitude: 45 28N     Longitude: 073 45W

WEATHER
 
SELECT A DAY
Number of Records: 197,862;   Date Range: 1/1/95 - 7/9/14
 
SHARE

PRINT THIS DATA

[ ← Previous Day ]
WEATHER ALMANAC - 24 APRIL, 2013
[ Next Day → ]
[ °F ]   °C
Weather ElementAverageHighLow
Temperature13.7 °C21 °C (3:00 pm)6 °C (3:00 am)
Dewpoint5.1 °C12 °C (10:57 pm)2 °C (2:00 am)
Humidity57.8 %88 % (11:00 pm)28 % (3:00 pm)
Barometer1008.8 hPa1018.3 hPa (1:00 am)1001.4 hPa (8:00 pm)
Wind Speed17.9 km/h46.3 km/h (10:57 pm)
Wind Gust61.2 km/h (10:57 pm)
Weather ElementAverage
Visibility34.4 km
Wind DirectionSSE (160 °)

Weather ElementTotal
Precipitation---
Heating Degree Days4.8 (Base 18.3)
Growing Degree Days3.5 (Base 10)
Averaged from 31 records on 24 April, 2013
WEATHER CONDITIONS BREAKOUT
WIND DIRECTION BREAKOUT
WEATHER BY HOUR - 24 APRIL, 2013
[ °F ]   °C
Local TimeTemperatureDewpointHumidityBarometerVisibilityWind DirectionWind SpeedGust SpeedPrecipitationEventsConditions
1:00 AM7 °C3 °C76 %1018.3 hPa24.1 kmSSE (150°)22.2 km/hPartly Cloudy
2:00 AM6.7 °C2.2 °C66 %1017.6 hPa24.1 kmSE (140°)11.1 km/h
2:00 AM7 °C2 °C71 %1017.6 hPa24.1 kmSE (140°)9.3 km/hClear
3:00 AM6 °C3 °C81 %1016.9 hPa24.1 kmSE (140°)13 km/hClear
4:00 AM7 °C3 °C76 %1016.9 hPa24.1 kmSE (140°)14.8 km/hPartly Cloudy
5:00 AM6 °C3 °C81 %1016.3 hPa24.1 kmSE (130°)13 km/hPartly Cloudy
6:00 AM6 °C3 °C81 %1015.6 hPa48.3 kmESE (120°)13 km/hPartly Cloudy
7:00 AM7 °C3 °C76 %1015.6 hPa48.3 kmSE (130°)18.5 km/hPartly Cloudy
8:00 AM7.8 °C3.9 °C68 %1015.2 hPa45.1 kmSE (130°)18.5 km/h
8:00 AM8 °C4 °C76 %1015.2 hPa48.3 kmESE (120°)20.4 km/hMostly Cloudy
9:00 AM10 °C4 °C66 %1013.9 hPa48.3 kmESE (110°)25.9 km/hScattered Clouds
10:00 AM12 °C5 °C62 %1012.5 hPa48.3 kmESE (120°)18.5 km/hScattered Clouds
11:00 AM14 °C5 °C55 %1011.5 hPa48.3 kmESE (120°)14.8 km/h27.8 km/hMostly Cloudy
12:00 PM15 °C5 °C51 %1010.8 hPa48.3 kmESE (120°)18.5 km/hOvercast
1:00 PM17 °C5 °C45 %1008.5 hPa48.3 kmESE (110°)18.5 km/hMostly Cloudy
1:25 PM18 °C4 °C40 %1007.8 hPa48.3 kmSE (130°)18.5 km/hMostly Cloudy
2:00 PM18.3 °C4.4 °C29 %1007.1 hPa45.1 kmESE (110°)14.8 km/hScattered Clouds
2:00 PM18 °C5 °C42 %1006.8 hPa48.3 kmESE (110°)13 km/hMostly Cloudy
3:00 PM21 °C2 °C28 %1005.4 hPa48.3 kmESE (120°)18.5 km/h27.8 km/hScattered Clouds
4:00 PM21 °C2 °C28 %1004.1 hPa48.3 kmSE (140°)20.4 km/h31.5 km/hMostly Cloudy
5:00 PM21 °C4 °C33 %1002.7 hPa48.3 kmSE (130°)24.1 km/hOvercast
6:00 PM20 °C6 °C40 %1002.4 hPa24.1 kmSSE (160°)20.4 km/hOvercast
6:49 PM19 °C7 °C46 %1002 hPa24.1 kmSouth (170°)27.8 km/hRainLight Rain Showers
7:00 PM19 °C7 °C46 %1002 hPa24.1 kmSouth (190°)20.4 km/h31.5 km/hRainLight Rain Showers
7:29 PM18 °C8 °C52 %1002 hPa24.1 kmWest (260°)11.1 km/hOvercast
8:00 PM17.2 °C7.2 °C41 %1001.4 hPa24.1 kmNW (310°)9.3 km/hRainLight Rain Showers
8:00 PM17 °C7 °C52 %1001.4 hPa24.1 kmWNW (300°)5.6 km/hOvercast
8:20 PM17 °C7 °C52 %1001.4 hPa24.1 kmWest (260°)3.7 km/hRainLight Rain Showers
9:00 PM16 °C9 °C63 %1001.4 hPa24.1 kmSouth (170°)5.6 km/hRainLight Rain Showers
10:57 PM15 °C12 °C82 %1001.7 hPa3.2 kmWSW (240°)46.3 km/h61.2 km/hRainRain Showers
11:00 PM14 °C12 °C88 %1002 hPa6.4 kmWSW (240°)44.4 km/h61.2 km/hRainRain Showers
Hourly data recorded from CYUL, located 0 kilometers away from Montreal, Quebec







STORIES FROM OUR PARTNERS